Find Starlink 11748

NORAD ID: 64373 Int'l Des: 2025-127 Owner: SPXS Country: US Constellation: starlink operational
LEOCIRCULAR

現在のビュー

3D地球を読み込み中...

Starlink 11748について

説明を読み込み中...

次回通過

Passes for default location (London). Set your location on the main map for personalized predictions.

高度履歴

Loading altitude history...

軌道要素

1 64373U 25127D 26145.91958541 .00129890 00000-0 99888-3 0 9994
2 64373 42.9995 339.4685 0001494 264.8513 95.2184 15.70866912 55642
Epoch: May 25, 2026 • Age: 25 hours

現在のステータス

高度 355.0 km
速度 7.70 km/s
衛星直下点 10.30°N, 90.27°W
打ち上げ日 Jun 13, 2025
運用期間 0.9 years
タイプ internet

技術仕様

分類 Payload
質量 960.00 kg
乾燥質量 910.00 kg
総質量 960.00 kg
長さ 0.30 m
直径 4.10 m
スパン 29.00 m
形状 Box + pan
製造者 SPXS
バスタイプ Starlink V2MD
フェーズステータス In Orbit
所有者/国 SPXS/US

Most Searched